This is the latest recevied weather packets stored in our database for station/object N5TDX. If no packets are shown the sender has not sent any weather packets the latest 10 day(s).
| Time | Temp. | Humidity | Pressure | Rain* | Wind** | Luminosity | Snow |
|---|---|---|---|---|---|---|---|
| 1777732883 | 19.44° C | 58% | 1019.4 hPa | 0 mm | - | - | - |
| 1777732580 | 19.44° C | 60% | 1019.2 hPa | 0 mm | - | - | - |
| 1777732278 | 18.89° C | 59% | 1019.3 hPa | 0 mm | - | - | - |
| 1777731975 | 18.33° C | 62% | 1019 hPa | 0 mm | - | - | - |
| 1777731671 | 18.33° C | 62% | 1019.1 hPa | 0 mm | - | - | - |
| 1777731369 | 17.78° C | 66% | 1019 hPa | 0 mm | - | - | - |
| 1777731066 | 17.22° C | 67% | 1019.1 hPa | 0 mm | - | - | - |
| 1777730765 | 16.11° C | 70% | 1019 hPa | 0 mm | - | - | - |
| 1777730460 | 15.56° C | 71% | 1019.1 hPa | 0 mm | - | - | - |
| 1777730156 | 15.56° C | 74% | 1018.7 hPa | 0 mm | - | - | - |
| 1777729853 | 15° C | 75% | 1019 hPa | 0 mm | - | - | - |
| 1777729550 | 14.44° C | 77% | 1018.7 hPa | 0 mm | - | - | - |
| 1777729247 | 14.44° C | 76% | 1018.8 hPa | 0 mm | - | - | - |
| 1777728944 | 13.89° C | 78% | 1018.9 hPa | 0 mm | - | - | - |
| 1777728640 | 13.89° C | 79% | 1018.8 hPa | 0 mm | - | - | - |
| 1777728337 | 13.33° C | 80% | 1018.8 hPa | 0 mm | - | - | - |
| 1777728034 | 12.78° C | 81% | 1018.6 hPa | 0 mm | - | - | - |
| 1777727731 | 12.78° C | 82% | 1018.6 hPa | 0 mm | - | - | - |
| 1777727428 | 12.22° C | 84% | 1018.6 hPa | 0 mm | - | - | - |
| 1777727125 | 12.22° C | 85% | 1018.4 hPa | 0 mm | - | - | - |
| 1777726824 | 11.67° C | 86% | 1018.7 hPa | 0 mm | - | - | - |
| 1777726520 | 11.11° C | 87% | 1018.5 hPa | 0 mm | - | - | - |
| 1777726217 | 10.56° C | 90% | 1018.5 hPa | 0 mm | - | - | - |
| 1777725914 | 10° C | 92% | 1018.2 hPa | 0 mm | - | - | - |
| 1777725611 | 10° C | 92% | 1018.2 hPa | 0 mm | - | - | - |
* Rain latest hour (hover to see other rain measurements)
** Current wind speed in m/s (hover to see current wind gust speed)